Weather History for KRBG - October, 2011

Change the Weather History Date:

Thursday, October 6, 2011

  Actual Average Record
Temperature  
Mean Temperature 52 °F 59 °F  
Max Temperature 61 °F 71 °F 94 °F (1952)
Min Temperature 43 °F 47 °F 32 °F (1974)
Degree Days  
Heating Degree Days 13 6  
Month to date heating degree days 50 34  
Since 1 July heating degree days 87 123  
Cooling Degree Days 0 0  
Month to date cooling degree days 0 2  
Year to date cooling degree days 446 478  
Growing Degree Days 2 (Base 50)    
Moisture  
Dew Point 43 °F    
Average Humidity 76    
Maximum Humidity 100    
Minimum Humidity 51    
Precipitation  
Precipitation 0.00 in 0.06 in 0.95 in (1949)
Month to date precipitation 1.26 0.32  
Year to date precipitation 23.21 20.93  
Sea Level Pressure  
Sea Level Pressure 29.98 in    
Wind  
Wind Speed 2 mph (NNW)    
Max Wind Speed 7 mph    
Max Gust Speed 10 mph    
Visibility 7 miles    
Events Fog    
T = Trace of Precipitation, MM = Missing Value Source: NWS Daily Summary

Daily Weather History Graph

Daily Weather History Graph

Search for Another Location

Airport or City:

Trip Planner

Search our weather history database for the weather conditions in past years. The results will help you decide how hot, cold, wet, or windy it might be!

Date:

Astronomy

Oct. 06, 2011 Rise Set
Actual Time 7:16 AM PDT 6:46 PM PDT
Civil Twilight 6:47 AM PDT 7:14 PM PDT
Nautical Twilight 6:14 AM PDT 7:47 PM PDT
Astronomical Twilight 5:41 AM PDT 8:20 PM PDT
Moon 4:09 PM PDT (10/6) 2:02 AM PDT (10/6)
Length of Visible Light 12h 26m
Length of Day
11h 29m
Waxing Gibbous, 76% of the Moon is Illuminated
Oct 6
Waxing Gibbous
Oct 11
Full
Oct 19
Last Quarter
Oct 26
New
Nov 2
First Quarter

Hourly Weather History & Observations

Time (PDT) Temp. Windchill Dew Point Humidity Pressure Visibility Wind Dir Wind Speed Gust Speed Precip Events Conditions
12:53 AM 45.0 °F - 42.1 °F 90% 29.83 in 10.0 mi Calm Calm - N/A   Clear
1:07 AM 44.6 °F - 41.0 °F 87% 29.83 in 10.0 mi Calm Calm - N/A   Partly Cloudy
1:44 AM 44.6 °F - 41.0 °F 87% 29.84 in 10.0 mi Calm Calm - N/A   Mostly Cloudy
1:53 AM 43.0 °F - 41.0 °F 93% 29.84 in 5.0 mi Calm Calm - N/A   Overcast
2:10 AM 44.6 °F - 42.8 °F 93% 29.85 in 1.5 mi Calm Calm - N/A   Overcast
2:18 AM 44.6 °F - 42.8 °F 93% 29.85 in 0.2 mi Calm Calm - N/A Fog Fog
2:53 AM 43.0 °F - 42.1 °F 97% 29.87 in 0.5 mi Calm Calm - N/A Fog Fog
3:20 AM 44.6 °F - 42.8 °F 93% 29.87 in 0.2 mi Calm Calm - N/A Fog Fog
3:29 AM 44.6 °F - 42.8 °F 93% 29.87 in 0.5 mi Calm Calm - N/A Fog Fog
3:43 AM 44.6 °F - 42.8 °F 93% 29.88 in 0.2 mi Calm Calm - N/A Fog Fog
3:51 AM 44.6 °F - 42.8 °F 93% 29.88 in 0.8 mi Calm Calm - N/A   Mist
3:53 AM 44.1 °F - 43.0 °F 96% 29.88 in 0.8 mi Calm Calm - N/A   Mist
4:01 AM 44.6 °F - 42.8 °F 93% 29.88 in 1.2 mi Calm Calm - N/A   Overcast
4:06 AM 44.6 °F - 42.8 °F 93% 29.88 in 3.0 mi Calm Calm - N/A   Overcast
4:29 AM 44.6 °F - 42.8 °F 93% 29.89 in 2.0 mi Calm Calm - N/A   Overcast
4:40 AM 44.6 °F - 42.8 °F 93% 29.90 in 6.0 mi Calm Calm - N/A   Overcast
4:53 AM 44.1 °F 42.5 °F 43.0 °F 96% 29.91 in 8.0 mi NNE 3.5 mph - N/A   Overcast
5:53 AM 44.1 °F - 43.0 °F 96% 29.94 in 7.0 mi Calm Calm - 0.01 in   Overcast
6:53 AM 44.1 °F - 43.0 °F 96% 29.96 in 7.0 mi Calm Calm - N/A   Overcast
7:53 AM 44.1 °F - 43.0 °F 96% 29.99 in 5.0 mi Calm Calm - N/A   Overcast
8:53 AM 45.0 °F 43.5 °F 42.1 °F 90% 30.01 in 10.0 mi WSW 3.5 mph - N/A   Overcast
9:53 AM 46.9 °F - 43.0 °F 86% 30.03 in 10.0 mi South 3.5 mph - N/A   Overcast
10:07 AM 46.4 °F - 42.8 °F 87% 30.03 in 10.0 mi Calm Calm - N/A   Overcast
10:53 AM 48.9 °F - 43.0 °F 80% 30.04 in 10.0 mi Calm Calm - N/A   Overcast
11:46 AM 51.8 °F - 44.6 °F 76% 30.05 in 10.0 mi North 3.5 mph - N/A   Overcast
11:53 AM 51.1 °F - 43.0 °F 74% 30.06 in 10.0 mi Calm Calm - N/A   Overcast
12:53 PM 55.0 °F - 43.0 °F 64% 30.07 in 10.0 mi Calm Calm - N/A   Mostly Cloudy
1:53 PM 59.0 °F - 44.1 °F 58% 30.07 in 10.0 mi North 4.6 mph - N/A   Partly Cloudy
2:53 PM 60.1 °F - 43.0 °F 53% 30.07 in 10.0 mi Calm Calm - N/A   Overcast
3:53 PM 60.1 °F - 42.1 °F 51% 30.08 in 10.0 mi Variable 3.5 mph - N/A   Overcast
4:53 PM 59.0 °F - 43.0 °F 55% 30.08 in 10.0 mi NW 3.5 mph - N/A   Overcast
5:53 PM 59.0 °F - 45.0 °F 60% 30.10 in 10.0 mi WNW 3.5 mph - N/A   Overcast
6:53 PM 59.0 °F - 46.0 °F 62% 30.12 in 10.0 mi NNE 3.5 mph - N/A   Overcast
7:53 PM 57.0 °F - 46.0 °F 67% 30.13 in 10.0 mi Calm Calm - N/A   Overcast
8:53 PM 55.9 °F - 46.0 °F 69% 30.15 in 10.0 mi NNE 6.9 mph - N/A   Overcast
9:53 PM 54.0 °F - 46.9 °F 77% 30.16 in 10.0 mi Calm Calm - N/A   Mostly Cloudy
10:53 PM 51.1 °F - 46.0 °F 83% 30.17 in 10.0 mi Calm Calm - N/A   Clear
11:53 PM 48.9 °F - 45.0 °F 86% 30.18 in 10.0 mi Calm Calm - N/A   Mostly Cloudy